sat.trackr.live / text

‹ back to catalog

STARLINK-31521

NORAD 59015 · 2024-036T

PAYLOAD ACTIVE UNKNOWN

§ Identity

Operator
Country
US
Launch date
2024-02-23
Launch site
AFWTR
Launch vehicle
Mass (kg)
RCS (m²)

Purposes: comms

External: N2YO · Heavens-Above · Gunter

§ Orbital elements

Epoch: 2026-09-20T16:48:22.533120Z

Period
94.01 min
Inclination
53.1589°
Eccentricity
0.0001202
Mean motion
15.31700916 rev/d
Perigee alt
469.9 km
Apogee alt
471.6 km
Semi-major
6,848.9 km
B*
2.7979e-5
RAAN
252.0790°
Arg perigee
82.5003°
Mean anomaly
277.6136°
Rev number
14,518

§ Raw data

STARLINK-315211 59015U 24036T   26263.70026080  .00000503  00000+0  27979-4 0  99922 59015  53.1589 252.0790 0001202  82.5003 277.6136 15.31700916145185

JSON: /api/v1/satellites/59015 · /tle

For live sub-satellite position, see the globe view (requires WebGL).

§ Visibility from observer

Set your observer location to see the next 7 days of passes ≥ 10°. The values pass through the URL so the page stays shareable.

No JS? Fill the form by hand. The geolocation button needs JavaScript.